Home   Weather   Kilgore   Past weeks

Flag for USA Past Weather in Kilgore, Texas, USA — Yesterday and Last 2 Weeks

Now
57 °F

Overcast.


Feels Like: 54 °F
Forecast: 53 / 67 °F
Wind: 12 mph from Northwest

Location: Gregg County Airport

Current Time: Apr 30, 2017 at 4:14:52 am

Latest Report: Apr 30, 2017 at 2:53 am


Visibility: 10 mi

Pressure: 29.73 "Hg

Humidity: 96%

Dew Point: 56 °F

Location of KilgoreLocation

Past Weather in Kilgore — Graph

°F

Kilgore Temperature Yesterday

Maximum temperature yesterday: 80 °F (at 12:53 am)
Minimum temperature yesterday: 62 °F (at 11:53 pm)
Average temperature yesterday: 76 °F

High & Low Weather Summary for the Past Weeks

 TemperatureHumidityPressure
High90 °F (Apr 28, 3:53 pm)100% (Apr 15, 6:17 am)30.12 "Hg (Apr 15, 6:17 am)
Low45 °F (Apr 24, 5:53 am)31% (Apr 24, 12:53 pm)29.42 "Hg (Apr 26, 1:53 pm)
Average69 °F80%29.86 "Hg
* Reported Apr 15 1:53 am — Apr 30 1:53 am, Kilgore, Weather by CustomWeather, © 2017

Note: Actual official high and low records may vary slightly from our data, if they occured in-between our weather recording intervals... More about our weather records

Advertising

Kilgore Weather History for the Previous 24 Hours

Scroll right to see more
 ConditionsComfort  
Time TempWeatherWind HumidityBarometerVisibility
1:53 am
Sun, Apr 30
58 °FOvercast.13 mph93%29.72 "Hg10 mi
1:22 am58 °FMostly cloudy.16 mph97%29.73 "Hg10 mi
12:53 am59 °FLight rain. Mostly cloudy.13 mph96%29.71 "Hg10 mi
12:42 am59 °FRain. Mostly cloudy.12 mph96%29.73 "Hg10 mi
12:10 am60 °FThundershowers. Mostly cloudy.22 mph96%29.71 "Hg10 mi
11:53 pm
Sat, Apr 29
62 °FThunderstorms. Overcast.23 mph96%29.68 "Hg10 mi
11:36 pm65 °FThundershowers. Overcast.22 mph97%29.66 "Hg10 mi
11:22 pm75 °FMostly cloudy.18 mph96%29.64 "Hg10 mi
10:43 pm76 °FMostly cloudy.18 mph97%29.62 "Hg10 mi
10:32 pm76 °FPassing clouds.16 mph97%29.62 "Hg10 mi
9:53 pm77 °FMostly cloudy.18 mph94%29.61 "Hg10 mi
9:37 pm77 °FLight rain. Mostly cloudy.20 mph94%29.64 "Hg7 mi
9:22 pm77 °FThundershowers. Mostly cloudy.13 mph96%29.62 "Hg10 mi
8:53 pm76 °FMostly cloudy.14 mph97%29.58 "Hg10 mi
7:53 pm75 °FFog.12 mph100%29.58 "Hg4 mi
6:53 pm75 °FThunderstorms. Fog.20 mph96%29.55 "Hg2 mi
6:29 pm74 °FStrong thunderstorms. Fog.21 mph100%29.59 "Hg1 mi
6:15 pm74 °FLight rain. Fog.18 mph100%29.56 "Hg10 mi
5:53 pm75 °FThundershowers. Fog.20 mph94%29.59 "Hg3 mi
4:53 pm76 °FOvercast.20 mph82%29.56 "Hg10 mi
3:53 pm74 °FOvercast.20 mph85%29.63 "Hg6 mi
2:53 pm75 °FFog.23 mph88%29.65 "Hg5 mi
1:55 pm76 °FLight rain. Fog.17 mph97%29.66 "Hg2 mi
12:53 pm78 °FMostly cloudy.21 mph84%29.62 "Hg7 mi
11:53 am80 °FMore clouds than sun.22 mph79%29.65 "Hg7 mi
10:53 am80 °FMostly cloudy.17 mph81%29.64 "Hg7 mi
9:53 am79 °FMostly cloudy.18 mph82%29.64 "Hg7 mi
8:53 am78 °FMostly cloudy.20 mph84%29.64 "Hg7 mi
7:53 am77 °FPartly sunny.21 mph88%29.64 "Hg7 mi
6:53 am76 °FMostly cloudy.17 mph94%29.64 "Hg7 mi
6:43 am76 °FMostly cloudy.15 mph94%29.67 "Hg7 mi
5:53 am76 °FLight rain. Overcast.20 mph97%29.64 "Hg10 mi
5:34 am76 °FOvercast.16 mph97%29.67 "Hg10 mi
5:01 am76 °FMostly cloudy.17 mph97%29.67 "Hg10 mi
Weather by CustomWeather, © 2017

See weather overviewHow to use our weather pages